Tracking 31027 objects as of 19-Jul-2025
HD Live streaming from Space Station
objects crossing your sky now

STARLINK-5300

Track STARLINK-5300 now!
10-day predictions
STARLINK-5300 is classified as:


NORAD ID: 55676
Int'l Code: 2023-021BA
Perigee: 577.4 km
Apogee: 581.0 km
Inclination: 70.0 °
Period: 96.1 minutes
Semi major axis: 6950 km
RCS: Unknown
Launch date: February 17, 2023
Source: United States (US)
Launch site: AIR FORCE WESTERN TEST RANGE (AFWTR)
Your satellite tracking list
STARLINK-30236
Track 1 satellite(s)




NASA's NSSDC Master Catalog

Two Line Element Set (TLE):
1 55676U 23021BA  25199.47460274 -.00000039  00000-0  44975-5 0  9994
2 55676  70.0001  15.0343 0002576 263.0783  97.0083 14.98329472134693
Source of the keplerian elements: AFSPC